Change the Weather History Date:

Wednesday, January 14, 2015

  Actual Average Record
Temperature  
Mean Temperature 67 °F 64 °F  
Max Temperature 70 °F 74 °F 86 °F (1947)
Min Temperature 64 °F 53 °F 31 °F (1981)
Degree Days  
Heating Degree Days 0 4  
Month to date heating degree days 13 56  
Since 1 July heating degree days 102 149  
Cooling Degree Days 2 3  
Month to date cooling degree days 74 41  
Year to date cooling degree days 74 41  
Growing Degree Days 16 (Base 50)    
Moisture  
Dew Point 64 °F    
Average Humidity 92    
Maximum Humidity 100    
Minimum Humidity 81    
Precipitation  
Precipitation 0.00 in 0.07 in 1.03 in (1995)
Month to date precipitation 0.45 0.89  
Year to date precipitation 0.45 0.89  
Sea Level Pressure  
Sea Level Pressure 30.08 in    
Wind  
Wind Speed 8 mph (NE)    
Max Wind Speed 15 mph    
Max Gust Speed 20 mph    
Visibility 8 miles    
Events      
T = Trace of Precipitation, MM = Missing Value Source: NWS Daily Summary

Daily Weather History Graph

Daily Weather History Graph

Search for Another Location

Airport or City:

Trip Planner

Search our weather history database for the weather conditions in past years. The results will help you decide how hot, cold, wet, or windy it might be!

Date:

Astronomy

Jan. 14, 2015 Rise Set
Actual Time 7:17 AM EST 5:55 PM EST
Civil Twilight 6:52 AM EST 6:20 PM EST
Nautical Twilight 6:23 AM EST 6:49 PM EST
Astronomical Twilight 5:55 AM EST 7:17 PM EST
Moon 1:23 AM EST (1/14) 12:56 PM EST (1/14)
Length of Visible Light 11h 28m
Length of Day
10h 38m
Last Quarter, 37% of the Moon is Illuminated
Jan 14
Last Quarter
Jan 20
New
Jan 26
First Quarter
Feb 3
Full
Feb 11
Last Quarter

Hourly Weather History & Observations

Time (EST) Temp. Dew Point Humidity Pressure Visibility Wind Dir Wind Speed Gust Speed Precip Events Conditions
12:10 AM 68.0 °F 66.0 °F 93% 30.07 in 10.0 mi NE 8.1 mph - N/A   Partly Cloudy
12:53 AM 66.9 °F 66.0 °F 97% 30.06 in 10.0 mi ENE 4.6 mph - N/A   Clear
1:53 AM 66.0 °F 64.9 °F 96% 30.06 in 10.0 mi East 3.5 mph - N/A   Clear
2:11 AM 64.9 °F 64.9 °F 100% 30.05 in 10.0 mi East 3.5 mph - N/A   Partly Cloudy
2:32 AM 66.0 °F 64.9 °F 96% 30.05 in 10.0 mi ENE 5.8 mph - N/A   Mostly Cloudy
2:53 AM 66.0 °F 64.9 °F 96% 30.05 in 10.0 mi ENE 5.8 mph - N/A   Overcast
3:36 AM 64.9 °F 64.9 °F 100% 30.04 in 3.0 mi NNE 6.9 mph - N/A   Overcast
3:42 AM 64.9 °F 64.9 °F 100% 30.04 in 1.8 mi NNE 8.1 mph - N/A   Overcast
3:53 AM 64.9 °F 64.9 °F 100% 30.06 in 2.0 mi North 8.1 mph - N/A   Overcast
4:14 AM 64.9 °F 64.9 °F 100% 30.05 in 1.0 mi NNE 9.2 mph - N/A   Overcast
4:37 AM 64.9 °F 64.9 °F 100% 30.04 in 2.5 mi NNE 9.2 mph - N/A   Overcast
4:53 AM 64.0 °F 64.0 °F 100% 30.06 in 5.0 mi NE 8.1 mph - N/A   Overcast
5:53 AM 64.0 °F 64.0 °F 100% 30.07 in 4.0 mi NNE 10.4 mph - N/A   Overcast
6:19 AM 64.9 °F 64.0 °F 97% 30.07 in 6.0 mi NNE 11.5 mph - N/A   Overcast
6:53 AM 64.9 °F 64.0 °F 97% 30.09 in 5.0 mi NNE 10.4 mph - N/A   Overcast
7:14 AM 64.9 °F 64.0 °F 97% 30.08 in 4.0 mi NNE 10.4 mph - N/A   Overcast
7:25 AM 64.9 °F 64.0 °F 97% 30.08 in 5.0 mi NE 9.2 mph - N/A   Overcast
7:53 AM 64.9 °F 64.0 °F 97% 30.10 in 10.0 mi NNE 9.2 mph - N/A   Overcast
8:53 AM 64.9 °F 64.0 °F 97% 30.11 in 10.0 mi NE 8.1 mph - N/A   Overcast
9:53 AM 66.9 °F 64.0 °F 90% 30.12 in 10.0 mi NE 8.1 mph - N/A   Overcast
10:53 AM 68.0 °F 64.0 °F 87% 30.13 in 10.0 mi NNE 9.2 mph - N/A   Overcast
11:53 AM 68.0 °F 64.0 °F 87% 30.11 in 10.0 mi NNE 6.9 mph - N/A   Overcast
12:53 PM 68.0 °F 64.0 °F 87% 30.08 in 10.0 mi NNE 9.2 mph - N/A   Overcast
1:53 PM 68.0 °F 64.0 °F 87% 30.06 in 10.0 mi North 8.1 mph - N/A   Overcast
2:27 PM 69.1 °F 63.0 °F 81% 30.05 in 10.0 mi North 10.4 mph - N/A   Overcast
2:53 PM 68.0 °F 63.0 °F 84% 30.05 in 10.0 mi North 11.5 mph - N/A   Overcast
3:11 PM 68.0 °F 63.0 °F 84% 30.04 in 10.0 mi North 6.9 mph - N/A   Overcast
3:53 PM 66.9 °F 63.0 °F 87% 30.06 in 10.0 mi NNE 6.9 mph - N/A   Overcast
4:53 PM 66.0 °F 62.1 °F 87% 30.07 in 10.0 mi North 11.5 mph - N/A   Overcast
5:53 PM 66.0 °F 62.1 °F 87% 30.09 in 10.0 mi NNE 9.2 mph - N/A   Overcast
6:36 PM 66.0 °F 61.0 °F 84% 30.09 in 10.0 mi NNE 10.4 mph - N/A   Overcast
6:53 PM 66.0 °F 62.1 °F 87% 30.09 in 10.0 mi NNE 8.1 mph - N/A   Overcast
7:16 PM 66.0 °F 62.1 °F 87% 30.09 in 10.0 mi NNE 5.8 mph - N/A   Overcast
7:53 PM 66.9 °F 62.1 °F 84% 30.09 in 10.0 mi NE 5.8 mph - N/A   Overcast
8:53 PM 66.9 °F 62.1 °F 84% 30.09 in 10.0 mi NNE 5.8 mph - N/A   Overcast
9:53 PM 66.9 °F 62.1 °F 84% 30.11 in 10.0 mi NE 5.8 mph - N/A   Overcast
10:53 PM 66.0 °F 62.1 °F 87% 30.10 in 10.0 mi NE 4.6 mph - N/A   Overcast
11:53 PM 66.0 °F 62.1 °F 87% 30.11 in 10.0 mi NE 8.1 mph - N/A   Overcast